EW5545 Weather Reports


Display with metric or nautical units.
time (UTC)temp
F
wind
direction
speed
MPH
gust
MPH
rain 1hr
in
rain 24hr
in
rain mn
in
humidity
%
barometer
mb
20260831050509 76 249 2.0 5.0 0.00 0.00 0.00 84 1013.6
20260831050015 76 253 2.0 5.0 0.00 0.00 0.00 84 1013.5
20260831045514 76 251 2.0 6.0 0.00 0.00 0.00 84 1013.5
20260831045014 76 248 2.0 3.0 0.00 0.00 0.00 84 1013.5
20260831044511 76 247 1.0 3.0 0.00 0.00 0.00 84 1013.5
20260831044007 76 246 0.0 2.0 0.00 0.00 0.00 84 1013.5
20260831043512 76 246 0.0 3.0 0.00 0.00 0.00 84 1013.4
20260831043015 76 246 0.0 3.0 0.00 0.00 0.00 83 1013.4
20260831042512 76 246 0.0 1.0 0.00 0.00 0.00 83 1013.3
20260831042007 77 246 0.0 1.0 0.00 0.00 0.00 83 1013.3
20260831040512 77 243 0.0 3.0 0.00 0.00 0.00 83 1013.3
20260831040016 77 243 1.0 3.0 0.00 0.00 0.00 82 1013.3
20260831034013 78 278 0.0 2.0 0.00 0.00 0.00 83 1013.2
20260831033512 78 28 1.0 3.0 0.00 0.00 0.00 83 1013.2
20260831032508 78 265 1.0 5.0 0.00 0.00 0.00 82 1013.2
20260831032007 78 280 0.0 3.0 0.00 0.00 0.00 82 1013.2
20260831031009 78 273 1.0 5.0 0.00 0.00 0.00 82 1013.2
20260831030007 79 302 1.0 3.0 0.00 0.00 0.00 81 1013.2
20260831024508 79 259 2.0 3.0 0.00 0.00 0.00 81 1013.2
20260831024012 79 278 2.0 5.0 0.00 0.00 0.00 81 1013.2
20260831023507 79 269 2.0 3.0 0.00 0.00 0.00 81 1013.1
20260831023015 79 299 2.0 3.0 0.00 0.00 0.00 81 1013.1
20260831022512 79 299 2.0 3.0 0.00 0.00 0.00 80 1013.1
20260831022015 79 267 1.0 6.0 0.00 0.00 0.00 80 1013.1
20260831021509 79 302 2.0 6.0 0.00 0.00 0.00 81 1013.2
20260831021013 79 0 3.0 7.0 0.00 0.00 0.00 81 1013.2
20260831020516 79 33 4.0 8.0 0.00 0.00 0.00 82 1013.2
20260831020007 80 24 3.0 8.0 0.00 0.00 0.00 82 1013.2
20260831015009 80 336 3.0 8.0 0.00 0.00 0.00 83 1013.3
20260831014512 80 15 3.0 8.0 0.00 0.00 0.00 83 1013.2
20260831013015 80 21 2.0 7.0 0.00 0.00 0.00 83 1013.1
20260831012512 80 353 3.0 6.0 0.00 0.00 0.00 82 1013.1
20260831010508 80 344 5.0 10.0 0.00 0.00 0.00 82 1013.1
20260831005513 80 18 4.0 8.0 0.00 0.00 0.00 81 1013.1
20260831004015 79 14 5.0 9.0 0.00 0.00 0.00 78 1013.1
20260831003015 79 357 4.0 9.0 0.00 0.00 0.00 77 1013.0
20260831002506 80 290 2.0 10.0 0.00 0.00 0.00 76 1012.9
20260831002009 79 312 2.0 5.0 0.00 0.00 0.00 76 1013.0
20260831001506 79 358 4.0 7.0 0.00 0.00 0.00 76 1013.0
20260831001009 79 330 2.0 8.0 0.00 0.00 0.00 76 1013.0
20260831000507 80 2 3.0 8.0 0.00 0.00 0.00 76 1013.0
20260831000016 80 323 3.0 8.0 0.00 0.00 0.00 76 1013.0
20260830235507 80 321 3.0 8.0 0.00 0.00 0.00 76 1012.9
20260830235008 80 4 4.0 8.0 0.00 0.00 0.00 76 1012.9
20260830234508 80 297 3.0 8.0 0.00 0.00 0.00 76 1012.9
20260830234009 80 29 3.0 7.0 0.00 0.00 0.00 76 1013.0
20260830233508 80 20 3.0 6.0 0.00 0.00 0.00 76 1013.0
20260830233015 80 352 1.0 3.0 0.00 0.00 0.00 76 1012.9
20260830232508 80 12 2.0 3.0 0.00 0.00 0.00 77 1013.0
20260830232009 80 251 2.0 5.0 0.00 0.00 0.00 78 1012.9
20260830231509 80 64 2.0 6.0 0.00 0.00 0.00 79 1012.9
20260830231012 80 359 2.0 6.0 0.00 0.00 0.00 79 1012.9
20260830230514 80 307 2.0 6.0 0.00 0.00 0.00 80 1012.8
20260830230015 80 14 1.0 3.0 0.00 0.00 0.00 80 1012.9
20260830225508 80 295 1.0 5.0 0.00 0.00 0.00 80 1012.9
20260830225014 80 280 1.0 5.0 0.00 0.00 0.00 79 1013.0
20260830224507 80 338 0.0 3.0 0.00 0.00 0.00 79 1013.1
20260830224015 80 276 1.0 3.0 0.00 0.00 0.00 79 1013.1
20260830223506 80 252 1.0 3.0 0.00 0.00 0.00 78 1013.0
20260830223015 80 16 1.0 3.0 0.00 0.00 0.00 77 1013.0
20260830222508 80 14 1.0 3.0 0.00 0.00 0.00 77 1013.0
20260830221512 80 258 0.0 2.0 0.00 0.00 0.00 75 1013.0
20260830221006 80 252 0.0 3.0 0.00 0.00 0.00 74 1013.0
20260830220514 80 249 1.0 3.0 0.00 0.00 0.00 74 1012.9
20260830220015 81 251 1.0 3.0 0.00 0.00 0.00 73 1012.8
20260830215009 81 321 1.0 3.0 0.00 0.00 0.00 73 1012.8
20260830213508 81 264 0.0 2.0 0.00 0.00 0.00 73 1012.7
20260830213013 81 37 0.0 2.0 0.00 0.00 0.00 73 1012.7
20260830212507 81 38 0.0 2.0 0.00 0.00 0.00 74 1012.6
20260830212013 81 289 0.0 0.0 0.00 0.00 0.00 74 1012.6
20260830211009 82 293 0.0 0.0 0.00 0.00 0.00 74 1012.6
20260830210507 82 304 1.0 3.0 0.00 0.00 0.00 74 1012.5
20260830210015 82 336 0.0 2.0 0.00 0.00 0.00 74 1012.5
20260830205507 82 39 1.0 2.0 0.00 0.00 0.00 74 1012.6
20260830204509 81 236 0.0 1.0 0.00 0.00 0.00 76 1012.6
20260830204015 81 235 0.0 0.0 0.00 0.00 0.00 78 1012.6
20260830203506 81 236 0.0 0.0 0.00 0.00 0.00 78 1012.6
20260830203016 82 235 1.0 3.0 0.00 0.00 0.00 78 1012.6
20260830202507 82 206 0.0 3.0 0.00 0.00 0.00 78 1012.5
20260830202006 82 204 1.0 3.0 0.00 0.00 0.00 77 1012.3
20260830201508 82 196 3.0 5.0 0.00 0.00 0.00 77 1012.3
20260830201015 82 204 2.0 5.0 0.00 0.00 0.00 77 1012.3
20260830200012 82 207 1.0 3.0 0.00 0.00 0.00 76 1012.2
20260830195512 82 190 1.0 3.0 0.00 0.00 0.00 76 1012.2
20260830195015 82 190 1.0 3.0 0.00 0.00 0.00 76 1012.1
20260830193512 82 210 3.0 8.0 0.00 0.00 0.00 75 1012.3
20260830193015 83 206 5.0 8.0 0.00 0.00 0.00 75 1012.2
20260830192512 83 198 4.0 8.0 0.00 0.00 0.00 74 1012.2
20260830192008 83 204 7.0 10.0 0.00 0.00 0.00 74 1012.1
20260830191508 83 194 6.0 9.0 0.00 0.00 0.00 73 1012.1
20260830190507 83 199 5.0 8.0 0.00 0.00 0.00 72 1012.0
20260830190016 83 217 4.0 10.0 0.00 0.00 0.00 72 1011.9
20260830185512 83 203 5.0 9.0 0.00 0.00 0.00 72 1011.9
20260830185015 83 201 5.0 9.0 0.00 0.00 0.00 71 1011.9
20260830184506 83 201 6.0 12.0 0.00 0.00 0.00 71 1011.9
20260830183015 84 203 4.0 8.0 0.00 0.00 0.00 68 1011.8
20260830182509 84 198 2.0 7.0 0.00 0.00 0.00 67 1011.7
20260830182007 84 250 1.0 6.0 0.00 0.00 0.00 67 1011.6
20260830181009 84 200 5.0 8.0 0.00 0.00 0.00 66 1011.5
20260830180509 84 203 5.0 9.0 0.00 0.00 0.00 65 1011.4
20260830175506 85 218 5.0 10.0 0.00 0.00 0.00 64 1011.3
20260830175015 85 204 6.0 12.0 0.00 0.00 0.00 63 1011.1
20260830174506 85 209 5.0 12.0 0.00 0.00 0.00 61 1011.0
20260830174007 85 200 6.0 12.0 0.00 0.00 0.00 61 1011.1
20260830173506 85 212 6.0 12.0 0.00 0.00 0.00 59 1011.2
20260830173007 86 190 7.0 12.0 0.00 0.00 0.00 58 1011.2
20260830172012 86 207 6.0 10.0 0.00 0.00 0.00 55 1011.0
20260830171012 87 207 7.0 12.0 0.00 0.00 0.00 53 1010.9
20260830170514 87 191 9.0 15.0 0.00 0.00 0.00 52 1010.8
20260830165015 88 195 7.0 13.0 0.00 0.00 0.00 49 1010.7
20260830164506 88 201 6.0 10.0 0.00 0.00 0.00 47 1010.7
20260830164007 88 191 5.0 13.0 0.00 0.00 0.00 46 1010.7
20260830163506 89 194 7.0 13.0 0.00 0.00 0.00 45 1010.7
20260830162506 89 186 7.0 15.0 0.00 0.00 0.00 44 1010.7
20260830162026 89 205 7.0 14.0 0.00 0.00 0.00 43 1010.7
20260830161506 89 217 9.0 18.0 0.00 0.00 0.00 42 1010.8
20260830161006 90 208 9.0 14.0 0.00 0.00 0.00 41 1010.7
20260830160508 90 184 7.0 14.0 0.00 0.00 0.00 40 1010.8
20260830160006 91 187 6.0 12.0 0.00 0.00 0.00 40 1010.8
20260830155508 91 177 6.0 15.0 0.00 0.00 0.00 39 1010.9
20260830155012 91 208 9.0 17.0 0.00 0.00 0.00 38 1010.9
20260830154008 92 210 7.0 17.0 0.00 0.00 0.00 36 1011.0
20260830153510 92 175 9.0 18.0 0.00 0.00 0.00 35 1010.9
20260830153013 93 192 9.0 15.0 0.00 0.00 0.00 35 1011.0
20260830152509 93 192 8.0 15.0 0.00 0.00 0.00 34 1011.0
20260830152014 94 191 9.0 17.0 0.00 0.00 0.00 32 1011.0
20260830151509 94 185 8.0 16.0 0.00 0.00 0.00 31 1011.0
20260830151008 95 187 7.0 13.0 0.00 0.00 0.00 30 1011.0
20260830150508 95 213 9.0 17.0 0.00 0.00 0.00 30 1011.1
20260830150007 95 191 7.0 16.0 0.00 0.00 0.00 31 1011.1
20260830145512 95 194 6.0 15.0 0.00 0.00 0.00 30 1011.1
20260830144508 96 175 8.0 18.0 0.00 0.00 0.00 29 1011.1
20260830144012 96 171 7.0 18.0 0.00 0.00 0.00 29 1011.2
20260830143508 96 175 8.0 15.0 0.00 0.00 0.00 28 1011.2
20260830143015 97 184 9.0 17.0 0.00 0.00 0.00 28 1011.3
20260830142512 97 172 9.0 13.0 0.00 0.00 0.00 28 1011.2
20260830142007 97 182 8.0 13.0 0.00 0.00 0.00 28 1011.3
20260830141506 98 204 9.0 14.0 0.00 0.00 0.00 27 1011.3
20260830140512 98 168 7.0 14.0 0.00 0.00 0.00 28 1011.3
20260830135508 98 185 8.0 16.0 0.00 0.00 0.00 27 1011.5
20260830134508 98 203 9.0 17.0 0.00 0.00 0.00 27 1011.5
20260830134015 98 172 8.0 13.0 0.00 0.00 0.00 27 1011.6
20260830133506 99 181 9.0 16.0 0.00 0.00 0.00 26 1011.7
20260830133008 99 161 6.0 15.0 0.00 0.00 0.00 26 1011.7
20260830132507 98 178 6.0 12.0 0.00 0.00 0.00 26 1011.8
20260830132009 99 196 9.0 14.0 0.00 0.00 0.00 26 1012.0
20260830131506 99 179 6.0 14.0 0.00 0.00 0.00 25 1012.0
20260830131014 99 165 7.0 17.0 0.00 0.00 0.00 26 1012.0
20260830130506 99 167 5.0 14.0 0.00 0.00 0.00 25 1012.1
20260830130012 100 174 6.0 14.0 0.00 0.00 0.00 25 1012.2
20260830125508 100 165 6.0 12.0 0.00 0.00 0.00 24 1012.2
20260830125014 100 183 6.0 14.0 0.00 0.00 0.00 24 1012.2
20260830124008 100 176 7.0 13.0 0.00 0.00 0.00 23 1012.4
20260830123508 100 178 5.0 12.0 0.00 0.00 0.00 23 1012.3
20260830123014 99 183 8.0 13.0 0.00 0.00 0.00 23 1012.5
20260830122008 101 196 5.0 12.0 0.00 0.00 0.00 23 1012.4
20260830121007 101 188 5.0 13.0 0.00 0.00 0.00 22 1012.5
20260830120508 100 186 6.0 12.0 0.00 0.00 0.00 22 1012.7
20260830120007 100 163 7.0 12.0 0.00 0.00 0.00 23 1012.7
20260830115016 99 184 7.0 12.0 0.00 0.00 0.00 22 1012.8
20260830114506 99 180 9.0 16.0 0.00 0.00 0.00 22 1012.8
20260830114006 100 183 8.0 14.0 0.00 0.00 0.00 21 1012.8
20260830113012 100 185 6.0 12.0 0.00 0.00 0.00 21 1012.9
20260830112008 100 176 6.0 14.0 0.00 0.00 0.00 23 1013.0
20260830111508 100 134 5.0 10.0 0.00 0.00 0.00 23 1013.0
20260830111007 99 193 6.0 14.0 0.00 0.00 0.00 22 1013.0
20260830110506 99 198 7.0 13.0 0.00 0.00 0.00 22 1013.1
20260830110007 99 201 5.0 12.0 0.00 0.00 0.00 23 1013.1
20260830105508 99 182 7.0 14.0 0.00 0.00 0.00 23 1013.1
20260830105009 99 183 6.0 14.0 0.00 0.00 0.00 23 1013.1
20260830104506 99 202 8.0 14.0 0.00 0.00 0.00 23 1013.2
20260830103508 99 172 6.0 12.0 0.00 0.00 0.00 23 1013.3
20260830102512 99 162 6.0 12.0 0.00 0.00 0.00 23 1013.4
20260830102008 99 183 6.0 12.0 0.00 0.00 0.00 23 1013.4
20260830101508 99 200 6.0 9.0 0.00 0.00 0.00 22 1013.5
20260830101008 99 192 5.0 12.0 0.00 0.00 0.00 22 1013.5
20260830100512 99 147 5.0 12.0 0.00 0.00 0.00 22 1013.6
20260830100012 99 196 6.0 12.0 0.00 0.00 0.00 22 1013.6
20260830095512 99 209 3.0 7.0 0.00 0.00 0.00 23 1013.7
20260830094514 99 177 5.0 10.0 0.00 0.00 0.00 23 1013.8
20260830094006 98 171 2.0 6.0 0.00 0.00 0.00 23 1013.9
20260830093506 98 202 5.0 13.0 0.00 0.00 0.00 23 1014.0
20260830093008 98 187 2.0 8.0 0.00 0.00 0.00 24 1014.0
20260830092506 98 181 3.0 8.0 0.00 0.00 0.00 24 1014.0
20260830092006 98 192 1.0 5.0 0.00 0.00 0.00 24 1014.0
20260830091506 97 170 3.0 9.0 0.00 0.00 0.00 24 1014.1
20260830091012 98 205 5.0 9.0 0.00 0.00 0.00 24 1014.2
20260830090506 98 194 3.0 7.0 0.00 0.00 0.00 24 1014.2
20260830090009 98 176 3.0 7.0 0.00 0.00 0.00 23 1014.2
20260830085512 98 205 3.0 7.0 0.00 0.00 0.00 24 1014.2
20260830085009 97 216 1.0 5.0 0.00 0.00 0.00 25 1014.3
20260830084506 97 220 1.0 5.0 0.00 0.00 0.00 27 1014.3
20260830084008 97 181 3.0 5.0 0.00 0.00 0.00 27 1014.3
20260830083006 96 186 1.0 3.0 0.00 0.00 0.00 27 1014.3
20260830082506 96 160 3.0 8.0 0.00 0.00 0.00 28 1014.4
20260830082015 95 164 1.0 3.0 0.00 0.00 0.00 29 1014.4
20260830081507 96 206 1.0 3.0 0.00 0.00 0.00 28 1014.5
20260830081008 95 136 1.0 2.0 0.00 0.00 0.00 29 1014.4
20260830080519 95 179 1.0 3.0 0.00 0.00 0.00 30 1014.4
20260830080008 94 267 0.0 2.0 0.00 0.00 0.00 30 1014.4
20260830075507 93 142 1.0 3.0 0.00 0.00 0.00 31 1014.6
20260830075006 93 222 1.0 3.0 0.00 0.00 0.00 31 1014.6
20260830074506 93 212 1.0 3.0 0.00 0.00 0.00 31 1014.7
20260830074006 93 220 0.0 3.0 0.00 0.00 0.00 31 1014.6
20260830073506 93 225 2.0 3.0 0.00 0.00 0.00 30 1014.6
20260830073009 93 177 1.0 3.0 0.00 0.00 0.00 30 1014.5
20260830072015 92 180 0.0 2.0 0.00 0.00 0.00 31 1014.3
20260830071512 92 166 1.0 2.0 0.00 0.00 0.00 31 1014.2
20260830070512 91 166 1.0 2.0 0.00 0.00 0.00 32 1014.2
20260830070012 90 176 0.0 1.0 0.00 0.00 0.00 35 1014.2
20260830065512 90 177 0.0 0.0 0.00 0.00 0.00 37 1014.2
20260830065014 89 177 0.0 0.0 0.00 0.00 0.00 38 1014.2
20260830064506 88 177 0.0 0.0 0.00 0.00 0.00 39 1014.1
20260830064009 87 177 0.0 0.0 0.00 0.00 0.00 40 1014.1
20260830063506 85 177 0.0 0.0 0.00 0.00 0.00 42 1014.1
20260830063015 84 177 0.0 0.0 0.00 0.00 0.00 44 1013.9
20260830062009 82 177 0.0 2.0 0.00 0.00 0.00 46 1014.1
20260830061506 82 243 0.0 1.0 0.00 0.00 0.00 47 1014.2
20260830060512 82 243 0.0 1.0 0.00 0.00 0.00 46 1014.3
20260830060012 82 243 0.0 0.0 0.00 0.00 0.00 47 1014.3
20260830055516 82 243 0.0 1.0 0.00 0.00 0.00 46 1014.5
20260830055012 82 243 0.0 1.0 0.00 0.00 0.00 43 1014.6
20260830054507 82 243 1.0 3.0 0.00 0.00 0.00 42 1014.6
20260830054008 82 245 1.0 2.0 0.00 0.00 0.00 41 1014.3
20260830053512 82 245 1.0 2.0 0.00 0.00 0.00 41 1014.1
20260830053012 82 246 0.0 1.0 0.00 0.00 0.00 41 1014.2
20260830052506 81 246 0.0 1.0 0.00 0.00 0.00 40 1014.4
20260830052012 81 246 0.0 1.0 0.00 0.00 0.00 41 1014.3
20260830051508 80 246 0.0 1.0 0.00 0.00 0.00 41 1014.3
20260830051008 80 246 0.0 1.0 0.00 0.00 0.00 40 1014.4